Погода в Пернике

Болгария     42°36′09″N   23°02′41″E
темп.,
°C
ветер,
м/с
пор.,
м/с
влажн.,
%
обл.,
%
осадки,
мм/ч
давл.,
гПа
погр.,
м
21 апреля, ср
ср2100:00+4зюз11805 0.0 101710
03:00+2ю11855 0.0 101810
06:00+1ю00874 0.0 101810
09:00+6ююз11725 0.0 1019215
12:00+11зюз125212 0.0 10181408
15:00+12зюз344399 0.2 10162027
18:00+12ссз245084 0.7 10161611
21:00+7св016621 0.9 101910
22 апреля, чт
чт2200:00+5ю11735 0.0 102110
03:00+4ю11795 0.0 102210
06:00+3ююв11821 0.0 102210
09:00+7ю227185 0.0 1022208
12:00+12ююз35556 0.0 1020970
15:00+15ююз564033 0.0 10182163
18:00+14ююз5853100 0.0 1017697
21:00+10ю1166100 0.0 101912
23 апреля, пт
пт2300:00+8ююв2273100 0.0 101918
03:00+8ю1177100 0.0 101811
06:00+7сз1190100 0.8 101925
09:00+7ююз1192100 2.1 1020140
12:00+8сз1188100 0.1 1021298
15:00+9сз237999 0.4 1022647
18:00+10с447176 0.1 1021906
21:00+6с228032 0.1 102317
24 апреля, сб
сб2400:00+5ссв2280100 0.0 102415
03:00+3ссв228442 0.0 102412
06:00+3с228586 0.0 102425
09:00+6с2373100 0.0 1024395
12:00+9с3354100 0.0 1022935
15:00+10с3351100 0.0 10211295
18:00+11сз1255100 0.0 1019802
21:00+8юз0172100 0.0 102017
25 апреля, вс
вс2500:00+7ссз1177100 0.0 102119
03:00+5с2280100 0.0 102148
06:00+5с227698 0.0 102172
09:00+7ссз33648 0.0 1021448
12:00+10с44555 0.0 10201178
15:00+12с444897 0.0 10181434
18:00+12с56533 0.0 10181332
21:00+6с36742 0.0 102193